Regional Weather Roundup
Issued by NWS Charleston, WV

Home | Current Version | Previous Version | Text Only | Print | Product List | Glossary On
Versions: 1 2 3 4 5 6 7 8 9 10 11 12 13 14 15 16 17 18 19 20 21 22 23 24 25 26 27 28 29 30 31 32 33 34 35 36 37
000
ASUS41 KRLX 220810
RWRRLX
West Virginia Regional Weather Roundup
National Weather Service Charleston WV
400 AM EDT WED OCT 22 2014

Note: "fair" indicates few or no clouds below 12,000 feet with no
significant weather and/or obstructions to visibility.

WVZ003-220900-
Northern Panhandle of West Virginia

CITY           SKY/WX    TMP DP  RH WIND       PRES   REMARKS
WHEELING       CLOUDY    47  44  90 N9        30.05R
$$

WVZ009-220900-
Northwest West Virginia

CITY           SKY/WX    TMP DP  RH WIND       PRES   REMARKS
PARKERSBURG    CLOUDY    46  43  89 NW7       30.11S
$$

WVZ006-220900-
Western West Virginia

CITY           SKY/WX    TMP DP  RH WIND       PRES   REMARKS
HUNTINGTON     CLOUDY    45  40  82 NW5       30.13R
$$

WVZ015-220900-
West Central West Virginia

CITY           SKY/WX    TMP DP  RH WIND       PRES   REMARKS
CHARLESTON     CLOUDY    46  41  82 NW5       30.10S
$$

WVZ022-031-220900-
North Central West Virginia

CITY           SKY/WX    TMP DP  RH WIND       PRES   REMARKS
CLARKSBURG     CLOUDY    46  44  93 W7        30.03S
MORGANTOWN     LGT RAIN  48  44  86 W5        30.03S FOG
$$

WVZ025-035-042-045-220900-
Southern West Virginia

CITY           SKY/WX    TMP DP  RH WIND       PRES   REMARKS
BECKLEY        LGT RAIN  41  38  89 NW9       30.04S
LOGAN          CLOUDY    43  41  93 NW7       30.08F
BLUEFIELD      CLOUDY    42  37  82 NW8       30.05R
LEWISBURG      CLOUDY    44  38  78 W5        30.01S
$$

WVZ047-220900-
Northern Mountains of West Virginia

CITY           SKY/WX    TMP DP  RH WIND       PRES   REMARKS
ELKINS         CLOUDY    44  43  96 N5        30.02R FOG
$$

WVZ052-220900-
Eastern Panhandle of West Virginia

CITY           SKY/WX    TMP DP  RH WIND       PRES   REMARKS
MARTINSBURG    CLOUDY    52  46  80 NW9       29.92S
PETERSBURG     CLOUDY   N/A N/A N/A N3        29.97S
$$



USA.gov is the U.S. government's official web portal to all federal, state and local government web resources and services.